Station Historical Data
Daily Summary for March 7, 2017 Units:  English    Metric   Both
« Previous Day
Next Day »
Daily Weekly Monthly Yearly Custom
  High: Low: Average:
Temperature: 45.5 °F 32.9 °F 38.3 °F
Dew Point: 42.1 °F 30.9 °F 35.8 °F
Humidity: 93 % 84 % 91 %
Wind Speed: 16.0 mph 0.0 mph 1.6 mph
Wind Gust: 19.0 mph - -
Wind:- - East
Pressure: 30.49 in 30.40 in -
Precipitation: 0.00 in    
Historical Graphs
 
 
Tabular Data for March 7, 2017
Time Temperature Dew Point Pressure Wind Wind Speed Wind Gust Humidity Rainfall Rate (Hourly) solar
00:04 33.7 °F 31.6 °F 30.44 in Calm   5.0 mph 92 % 0.00 in 0.00 W/m2
00:09 33.7 °F 31.6 °F 30.43 in Calm   5.0 mph 92 % 0.00 in 0.00 W/m2
00:14 33.6 °F 31.5 °F 30.44 in Calm   7.0 mph 92 % 0.00 in 0.00 W/m2
00:19 33.6 °F 31.5 °F 30.44 in Calm   6.0 mph 92 % 0.00 in 0.00 W/m2
00:24 33.5 °F 31.4 °F 30.44 in ESE 4.0 mph 7.0 mph 92 % 0.00 in 0.00 W/m2
00:29 33.5 °F 31.4 °F 30.44 in Calm   5.0 mph 92 % 0.00 in 0.00 W/m2
00:34 33.5 °F 31.4 °F 30.44 in East 6.0 mph 7.0 mph 92 % 0.00 in 0.00 W/m2
00:39 33.5 °F 31.4 °F 30.44 in Calm   7.0 mph 92 % 0.00 in 0.00 W/m2
00:42 33.5 °F 31.4 °F 30.44 in East 2.0 mph 4.0 mph 92 % 0.00 in 0.00 W/m2
00:47 33.5 °F 31.4 °F 30.44 in East 2.0 mph 8.0 mph 92 % 0.00 in 0.00 W/m2
00:52 33.5 °F 31.4 °F 30.44 in East 6.0 mph 7.0 mph 92 % 0.00 in 0.00 W/m2
00:57 33.5 °F 31.4 °F 30.44 in East 1.0 mph 7.0 mph 92 % 0.00 in 0.00 W/m2
01:02 33.5 °F 31.4 °F 30.44 in East 1.0 mph 7.0 mph 92 % 0.00 in 0.00 W/m2
01:07 33.5 °F 31.4 °F 30.44 in Calm   7.0 mph 92 % 0.00 in 0.00 W/m2
01:12 33.5 °F 31.4 °F 30.44 in Calm   6.0 mph 92 % 0.00 in 0.00 W/m2
01:17 33.5 °F 31.4 °F 30.44 in Calm   6.0 mph 92 % 0.00 in 0.00 W/m2
01:22 33.5 °F 31.4 °F 30.44 in Calm   7.0 mph 92 % 0.00 in 0.00 W/m2
01:27 33.5 °F 31.4 °F 30.43 in East 1.0 mph 6.0 mph 92 % 0.00 in 0.00 W/m2
01:32 33.5 °F 31.4 °F 30.43 in Calm     92 % 0.00 in 0.00 W/m2
01:37 33.5 °F 31.4 °F 30.43 in East 1.0 mph 7.0 mph 92 % 0.00 in 0.00 W/m2
01:42 33.5 °F 31.4 °F 30.43 in Calm   6.0 mph 92 % 0.00 in 0.00 W/m2
01:47 33.5 °F 31.4 °F 30.43 in East 1.0 mph 11.0 mph 92 % 0.00 in 0.00 W/m2
01:52 33.5 °F 31.4 °F 30.43 in East 5.0 mph 5.0 mph 92 % 0.00 in 0.00 W/m2
01:57 33.6 °F 31.5 °F 30.43 in Calm   5.0 mph 92 % 0.00 in 0.00 W/m2
02:02 33.6 °F 31.5 °F 30.43 in Calm   4.0 mph 92 % 0.00 in 0.00 W/m2
02:07 33.6 °F 31.5 °F 30.43 in East 5.0 mph 5.0 mph 92 % 0.00 in 0.00 W/m2
02:12 33.6 °F 31.5 °F 30.43 in East 5.0 mph 7.0 mph 92 % 0.00 in 0.00 W/m2
02:17 33.6 °F 31.5 °F 30.43 in Calm   2.0 mph 92 % 0.00 in 0.00 W/m2
02:22 33.5 °F 31.4 °F 30.43 in Calm   5.0 mph 92 % 0.00 in 0.00 W/m2
02:27 33.5 °F 31.4 °F 30.43 in Calm   5.0 mph 92 % 0.00 in 0.00 W/m2
02:32 33.5 °F 31.4 °F 30.43 in Calm   4.0 mph 92 % 0.00 in 0.00 W/m2
02:37 33.5 °F 31.4 °F 30.43 in Calm   4.0 mph 92 % 0.00 in 0.00 W/m2
02:42 33.5 °F 31.4 °F 30.43 in Calm   9.0 mph 92 % 0.00 in 0.00 W/m2
02:43 33.5 °F 31.4 °F 30.43 in Calm   9.0 mph 92 % 0.00 in 0.00 W/m2
02:48 33.5 °F 31.4 °F 30.43 in Calm   4.0 mph 92 % 0.00 in 0.00 W/m2
02:53 33.5 °F 31.4 °F 30.43 in Calm   11.0 mph 92 % 0.00 in 0.00 W/m2
02:58 33.5 °F 31.4 °F 30.43 in East 1.0 mph 5.0 mph 92 % 0.00 in 0.00 W/m2
03:03 33.4 °F 31.3 °F 30.43 in East 4.0 mph 5.0 mph 92 % 0.00 in 0.00 W/m2
03:08 33.4 °F 31.3 °F 30.43 in East 1.0 mph 6.0 mph 92 % 0.00 in 0.00 W/m2
03:13 33.4 °F 31.3 °F 30.43 in Calm   4.0 mph 92 % 0.00 in 0.00 W/m2
03:18 33.3 °F 31.2 °F 30.42 in Calm   7.0 mph 92 % 0.00 in 0.00 W/m2
03:23 33.3 °F 31.2 °F 30.42 in ESE 1.0 mph 7.0 mph 92 % 0.00 in 0.00 W/m2
03:28 33.3 °F 31.2 °F 30.42 in East 7.0 mph 7.0 mph 92 % 0.00 in 0.00 W/m2
03:33 33.2 °F 31.4 °F 30.42 in Calm   5.0 mph 93 % 0.00 in 0.00 W/m2
03:38 33.2 °F 31.4 °F 30.42 in Calm   5.0 mph 93 % 0.00 in 0.00 W/m2
03:43 33.2 °F 31.4 °F 30.42 in East 2.0 mph 6.0 mph 93 % 0.00 in 0.00 W/m2
03:48 33.2 °F 31.4 °F 30.42 in East 11.0 mph 11.0 mph 93 % 0.00 in 0.00 W/m2
03:53 33.2 °F 31.4 °F 30.41 in Calm   5.0 mph 93 % 0.00 in 0.00 W/m2
03:58 33.2 °F 31.4 °F 30.41 in ESE 2.0 mph 12.0 mph 93 % 0.00 in 0.00 W/m2
04:03 33.2 °F 31.4 °F 30.42 in East 1.0 mph 16.0 mph 93 % 0.00 in 0.00 W/m2
04:08 33.1 °F 31.3 °F 30.42 in East 2.0 mph 12.0 mph 93 % 0.00 in 0.00 W/m2
04:13 33.1 °F 31.3 °F 30.42 in ESE 9.0 mph 16.0 mph 93 % 0.00 in 0.00 W/m2
04:18 33.1 °F 31.3 °F 30.42 in East 7.0 mph 14.0 mph 93 % 0.00 in 0.00 W/m2
04:23 33.1 °F 31.3 °F 30.42 in Calm   13.0 mph 93 % 0.00 in 0.00 W/m2
04:28 33.2 °F 31.4 °F 30.41 in East 5.0 mph 13.0 mph 93 % 0.00 in 0.00 W/m2
04:33 33.2 °F 31.4 °F 30.42 in East 11.0 mph 16.0 mph 93 % 0.00 in 0.00 W/m2
04:38 33.2 °F 31.4 °F 30.41 in East 2.0 mph 15.0 mph 93 % 0.00 in 0.00 W/m2
04:43 33.3 °F 31.5 °F 30.41 in ESE 8.0 mph 18.0 mph 93 % 0.00 in 0.00 W/m2
04:48 33.3 °F 31.5 °F 30.41 in East 5.0 mph 13.0 mph 93 % 0.00 in 0.00 W/m2
04:53 33.3 °F 31.5 °F 30.41 in ESE 6.0 mph 14.0 mph 93 % 0.00 in 0.00 W/m2
04:58 33.3 °F 31.5 °F 30.41 in East 6.0 mph 16.0 mph 93 % 0.00 in 0.00 W/m2
05:03 33.3 °F 31.5 °F 30.41 in East 8.0 mph 14.0 mph 93 % 0.00 in 0.00 W/m2
05:08 33.3 °F 31.5 °F 30.41 in ESE 7.0 mph 15.0 mph 93 % 0.00 in 0.00 W/m2
05:13 33.3 °F 31.5 °F 30.41 in East 10.0 mph 13.0 mph 93 % 0.00 in 0.00 W/m2
05:18 33.2 °F 31.4 °F 30.41 in ESE 4.0 mph 14.0 mph 93 % 0.00 in 0.00 W/m2
05:23 33.2 °F 31.4 °F 30.41 in East 5.0 mph 14.0 mph 93 % 0.00 in 0.00 W/m2
05:28 33.1 °F 31.3 °F 30.41 in East 2.0 mph 13.0 mph 93 % 0.00 in 0.00 W/m2
05:33 33.0 °F 31.2 °F 30.41 in East 13.0 mph 13.0 mph 93 % 0.00 in 0.00 W/m2
05:38 33.0 °F 31.2 °F 30.41 in East 12.0 mph 12.0 mph 93 % 0.00 in 0.00 W/m2
05:43 33.0 °F 31.2 °F 30.41 in East 8.0 mph 14.0 mph 93 % 0.00 in 0.00 W/m2
05:48 33.0 °F 31.2 °F 30.41 in East 11.0 mph 12.0 mph 93 % 0.00 in 0.00 W/m2
05:53 33.0 °F 30.9 °F 30.41 in East 3.0 mph 12.0 mph 92 % 0.00 in 0.00 W/m2
05:58 32.9 °F 31.1 °F 30.41 in East 5.0 mph 14.0 mph 93 % 0.00 in 0.00 W/m2
06:03 33.0 °F 31.2 °F 30.41 in ESE 7.0 mph 12.0 mph 93 % 0.00 in 0.00 W/m2
06:08 33.0 °F 31.2 °F 30.41 in ESE 2.0 mph 11.0 mph 93 % 0.00 in 0.00 W/m2
06:13 33.0 °F 31.2 °F 30.41 in East 4.0 mph 12.0 mph 93 % 0.00 in 0.00 W/m2
06:18 33.0 °F 31.2 °F 30.41 in ESE 2.0 mph 13.0 mph 93 % 0.00 in 0.00 W/m2
06:23 33.0 °F 31.2 °F 30.41 in ESE 2.0 mph 13.0 mph 93 % 0.00 in 5.00 W/m2
06:28 33.0 °F 31.2 °F 30.41 in ESE 5.0 mph 11.0 mph 93 % 0.00 in 5.00 W/m2
06:33 33.0 °F 31.2 °F 30.41 in ESE 2.0 mph 9.0 mph 93 % 0.00 in 9.00 W/m2
06:38 33.0 °F 31.2 °F 30.41 in ESE 5.0 mph 9.0 mph 93 % 0.00 in 11.00 W/m2
06:43 33.0 °F 31.2 °F 30.41 in ESE 6.0 mph 11.0 mph 93 % 0.00 in 12.00 W/m2
06:48 33.0 °F 30.9 °F 30.41 in ESE 2.0 mph 13.0 mph 92 % 0.00 in 18.00 W/m2
06:53 33.0 °F 31.2 °F 30.41 in ESE 12.0 mph 12.0 mph 93 % 0.00 in 23.00 W/m2
06:58 33.0 °F 30.9 °F 30.41 in ESE 2.0 mph 11.0 mph 92 % 0.00 in 26.00 W/m2
07:03 33.0 °F 30.9 °F 30.41 in ESE 2.0 mph 8.0 mph 92 % 0.00 in 60.00 W/m2
07:08 33.0 °F 30.9 °F 30.42 in Calm   8.0 mph 92 % 0.00 in 114.00 W/m2
07:13 33.0 °F 30.9 °F 30.42 in ESE 5.0 mph 9.0 mph 92 % 0.00 in 144.00 W/m2
07:18 33.1 °F 31.0 °F 30.42 in Calm   1.0 mph 92 % 0.00 in 158.00 W/m2
07:23 33.2 °F 31.1 °F 30.42 in Calm   5.0 mph 92 % 0.00 in 83.00 W/m2
07:28 33.3 °F 31.2 °F 30.42 in Calm     92 % 0.00 in 98.00 W/m2
07:33 33.4 °F 31.3 °F 30.43 in Calm     92 % 0.00 in 148.00 W/m2
07:38 33.5 °F 31.4 °F 30.43 in Calm   1.0 mph 92 % 0.00 in 135.00 W/m2
07:43 33.7 °F 31.6 °F 30.43 in Calm   1.0 mph 92 % 0.00 in 176.00 W/m2
07:48 33.8 °F 31.7 °F 30.43 in Calm   1.0 mph 92 % 0.00 in 179.00 W/m2
07:53 33.9 °F 31.8 °F 30.43 in East 1.0 mph 8.0 mph 92 % 0.00 in 195.00 W/m2
07:58 34.0 °F 31.9 °F 30.43 in ESE 1.0 mph 1.0 mph 92 % 0.00 in 216.00 W/m2
08:03 34.1 °F 32.0 °F 30.43 in Calm   2.0 mph 92 % 0.00 in 258.00 W/m2
08:08 34.3 °F 32.2 °F 30.43 in East 1.0 mph 2.0 mph 92 % 0.00 in 301.00 W/m2
08:13 34.4 °F 32.3 °F 30.44 in Calm   12.0 mph 92 % 0.00 in 338.00 W/m2
08:18 34.7 °F 32.6 °F 30.44 in Calm   1.0 mph 92 % 0.00 in 271.00 W/m2
08:23 34.8 °F 32.7 °F 30.44 in ESE 1.0 mph 1.0 mph 92 % 0.00 in 267.00 W/m2
08:28 35.1 °F 33.0 °F 30.45 in Calm   1.0 mph 92 % 0.00 in 292.00 W/m2
08:33 35.3 °F 33.2 °F 30.45 in Calm   1.0 mph 92 % 0.00 in 243.00 W/m2
08:38 35.5 °F 33.4 °F 30.45 in Calm   2.0 mph 92 % 0.00 in 225.00 W/m2
08:43 35.7 °F 33.6 °F 30.44 in Calm   1.0 mph 92 % 0.00 in 276.00 W/m2
08:48 36.0 °F 33.9 °F 30.45 in Calm   5.0 mph 92 % 0.00 in 246.00 W/m2
08:53 36.1 °F 34.0 °F 30.45 in Calm   1.0 mph 92 % 0.00 in 206.00 W/m2
08:58 36.4 °F 34.3 °F 30.45 in Calm   1.0 mph 92 % 0.00 in 181.00 W/m2
09:03 36.6 °F 34.5 °F 30.45 in Calm   9.0 mph 92 % 0.00 in 193.00 W/m2
09:08 36.7 °F 34.6 °F 30.44 in Calm   1.0 mph 92 % 0.00 in 213.00 W/m2
09:13 36.8 °F 34.7 °F 30.45 in ESE 8.0 mph 11.0 mph 92 % 0.00 in 213.00 W/m2
09:18 36.8 °F 34.7 °F 30.45 in Calm   2.0 mph 92 % 0.00 in 206.00 W/m2
09:23 36.9 °F 34.8 °F 30.45 in Calm   2.0 mph 92 % 0.00 in 213.00 W/m2
09:28 36.9 °F 35.1 °F 30.46 in Calm     93 % 0.00 in 213.00 W/m2
09:33 37.0 °F 35.2 °F 30.46 in Calm     93 % 0.00 in 299.00 W/m2
09:38 37.2 °F 35.4 °F 30.47 in Calm     93 % 0.00 in 279.00 W/m2
09:43 37.3 °F 35.5 °F 30.46 in Calm     93 % 0.00 in 269.00 W/m2
09:48 37.4 °F 35.6 °F 30.46 in Calm     93 % 0.00 in 232.00 W/m2
09:54 37.6 °F 35.5 °F 30.46 in Calm     92 % 0.00 in 223.00 W/m2
09:59 37.7 °F 35.6 °F 30.47 in Calm     92 % 0.00 in 220.00 W/m2
10:04 37.8 °F 36.0 °F 30.48 in Calm     93 % 0.00 in 225.00 W/m2
10:09 38.0 °F 35.9 °F 30.48 in Calm     92 % 0.00 in 295.00 W/m2
10:14 38.1 °F 36.0 °F 30.48 in Calm     92 % 0.00 in 332.00 W/m2
10:19 38.2 °F 36.1 °F 30.48 in Calm     92 % 0.00 in 308.00 W/m2
10:24 38.4 °F 36.0 °F 30.48 in Calm     91 % 0.00 in 241.00 W/m2
10:29 38.9 °F 36.5 °F 30.48 in Calm     91 % 0.00 in 237.00 W/m2
10:34 39.3 °F 36.9 °F 30.49 in Calm     91 % 0.00 in 253.00 W/m2
10:39 39.5 °F 36.8 °F 30.48 in Calm     90 % 0.00 in 197.00 W/m2
10:44 39.7 °F 37.0 °F 30.48 in Calm     90 % 0.00 in 197.00 W/m2
10:49 39.8 °F 37.1 °F 30.48 in Calm     90 % 0.00 in 193.00 W/m2
10:54 39.9 °F 37.2 °F 30.48 in Calm     90 % 0.00 in 179.00 W/m2
10:59 39.9 °F 37.2 °F 30.47 in Calm     90 % 0.00 in 227.00 W/m2
11:04 40.0 °F 37.6 °F 30.47 in Calm     91 % 0.00 in 239.00 W/m2
11:09 40.1 °F 37.7 °F 30.47 in Calm     91 % 0.00 in 197.00 W/m2
11:14 40.1 °F 37.7 °F 30.47 in Calm     91 % 0.00 in 204.00 W/m2
11:19 40.0 °F 37.6 °F 30.46 in Calm     91 % 0.00 in 253.00 W/m2
11:24 40.1 °F 37.7 °F 30.47 in Calm   2.0 mph 91 % 0.00 in 330.00 W/m2
11:29 40.1 °F 37.7 °F 30.47 in Calm   1.0 mph 91 % 0.00 in 323.00 W/m2
11:34 40.3 °F 37.6 °F 30.47 in Calm   2.0 mph 90 % 0.00 in 325.00 W/m2
11:39 40.4 °F 37.1 °F 30.47 in Calm   5.0 mph 88 % 0.00 in 287.00 W/m2
11:44 40.6 °F 37.6 °F 30.47 in Calm     89 % 0.00 in 288.00 W/m2
11:49 40.7 °F 37.4 °F 30.48 in Calm     88 % 0.00 in 262.00 W/m2
11:54 40.7 °F 37.4 °F 30.48 in Calm   2.0 mph 88 % 0.00 in 232.00 W/m2
11:59 40.7 °F 37.4 °F 30.48 in Calm     88 % 0.00 in 218.00 W/m2
12:04 40.7 °F 37.1 °F 30.48 in Calm     87 % 0.00 in 234.00 W/m2
12:09 40.8 °F 37.2 °F 30.48 in Calm     87 % 0.00 in 264.00 W/m2
12:14 41.0 °F 38.0 °F 30.47 in Calm   2.0 mph 89 % 0.00 in 264.00 W/m2
12:19 41.1 °F 38.1 °F 30.47 in Calm   1.0 mph 89 % 0.00 in 243.00 W/m2
12:24 41.1 °F 38.1 °F 30.47 in Calm   2.0 mph 89 % 0.00 in 371.00 W/m2
12:29 41.2 °F 38.2 °F 30.47 in ESE 2.0 mph 2.0 mph 89 % 0.00 in 394.00 W/m2
12:34 41.3 °F 38.0 °F 30.46 in East 1.0 mph 4.0 mph 88 % 0.00 in 258.00 W/m2
12:39 41.5 °F 38.2 °F 30.46 in East 2.0 mph 6.0 mph 88 % 0.00 in 229.00 W/m2
12:44 41.6 °F 38.6 °F 30.47 in Calm   4.0 mph 89 % 0.00 in 267.00 W/m2
12:49 41.6 °F 38.0 °F 30.47 in Calm   2.0 mph 87 % 0.00 in 257.00 W/m2
12:54 41.7 °F 37.8 °F 30.46 in East 2.0 mph 2.0 mph 86 % 0.00 in 241.00 W/m2
12:59 41.9 °F 38.3 °F 30.45 in East 1.0 mph 4.0 mph 87 % 0.00 in 306.00 W/m2
13:04 41.9 °F 38.3 °F 30.45 in Calm   7.0 mph 87 % 0.00 in 285.00 W/m2
13:09 42.0 °F 38.1 °F 30.45 in East 1.0 mph 9.0 mph 86 % 0.00 in 213.00 W/m2
13:14 42.0 °F 37.8 °F 30.44 in Calm   7.0 mph 85 % 0.00 in 139.00 W/m2
13:19 42.0 °F 37.5 °F 30.44 in East 1.0 mph 6.0 mph 84 % 0.00 in 107.00 W/m2
13:24 42.1 °F 37.9 °F 30.43 in Calm   6.0 mph 85 % 0.00 in 144.00 W/m2
13:29 42.0 °F 37.8 °F 30.43 in ENE 12.0 mph 12.0 mph 85 % 0.00 in 165.00 W/m2
13:35 42.0 °F 37.8 °F 30.43 in ENE 2.0 mph 5.0 mph 85 % 0.00 in 127.00 W/m2
13:40 41.9 °F 37.7 °F 30.42 in Calm   7.0 mph 85 % 0.00 in 109.00 W/m2
13:45 41.9 °F 38.0 °F 30.43 in Calm     86 % 0.00 in 116.00 W/m2
13:50 41.8 °F 37.6 °F 30.43 in Calm   9.0 mph 85 % 0.00 in 134.00 W/m2
13:55 41.8 °F 37.6 °F 30.43 in Calm   6.0 mph 85 % 0.00 in 130.00 W/m2
14:00 41.8 °F 38.2 °F 30.43 in SE 1.0 mph 5.0 mph 87 % 0.00 in 116.00 W/m2
14:05 41.8 °F 38.5 °F 30.43 in Calm   8.0 mph 88 % 0.00 in 135.00 W/m2
14:10 41.8 °F 38.8 °F 30.43 in Calm   5.0 mph 89 % 0.00 in 162.00 W/m2
14:15 41.8 °F 38.8 °F 30.43 in Calm   4.0 mph 89 % 0.00 in 186.00 W/m2
14:20 41.7 °F 39.0 °F 30.43 in Calm   4.0 mph 90 % 0.00 in 220.00 W/m2
14:25 41.6 °F 38.9 °F 30.43 in Calm   5.0 mph 90 % 0.00 in 251.00 W/m2
14:30 41.6 °F 38.9 °F 30.43 in ESE 1.0 mph 6.0 mph 90 % 0.00 in 264.00 W/m2
14:35 41.7 °F 39.0 °F 30.43 in Calm   6.0 mph 90 % 0.00 in 262.00 W/m2
14:40 41.7 °F 39.0 °F 30.42 in East 4.0 mph 9.0 mph 90 % 0.00 in 265.00 W/m2
14:45 42.0 °F 39.3 °F 30.42 in Calm   4.0 mph 90 % 0.00 in 241.00 W/m2
14:50 42.1 °F 39.4 °F 30.42 in East 2.0 mph 7.0 mph 90 % 0.00 in 262.00 W/m2
14:55 42.4 °F 39.7 °F 30.42 in Calm   4.0 mph 90 % 0.00 in 243.00 W/m2
15:00 42.6 °F 39.9 °F 30.42 in East 1.0 mph 4.0 mph 90 % 0.00 in 227.00 W/m2
15:05 42.7 °F 39.7 °F 30.42 in Calm   5.0 mph 89 % 0.00 in 197.00 W/m2
15:10 43.0 °F 40.0 °F 30.42 in Calm   5.0 mph 89 % 0.00 in 171.00 W/m2
15:15 43.1 °F 40.1 °F 30.42 in Calm   6.0 mph 89 % 0.00 in 169.00 W/m2
15:20 43.3 °F 40.6 °F 30.42 in Calm   4.0 mph 90 % 0.00 in 179.00 W/m2
15:25 43.3 °F 40.6 °F 30.42 in East 3.0 mph 6.0 mph 90 % 0.00 in 179.00 W/m2
15:30 43.4 °F 40.7 °F 30.41 in East 2.0 mph 5.0 mph 90 % 0.00 in 209.00 W/m2
15:35 43.5 °F 40.5 °F 30.41 in East 2.0 mph 4.0 mph 89 % 0.00 in 199.00 W/m2
15:40 43.5 °F 40.5 °F 30.41 in Calm   6.0 mph 89 % 0.00 in 197.00 W/m2
15:45 43.5 °F 40.2 °F 30.41 in Calm   3.0 mph 88 % 0.00 in 195.00 W/m2
15:50 43.8 °F 40.8 °F 30.42 in Calm   3.0 mph 89 % 0.00 in 193.00 W/m2
15:55 44.0 °F 41.3 °F 30.41 in NE 3.0 mph 5.0 mph 90 % 0.00 in 183.00 W/m2
16:00 44.2 °F 41.2 °F 30.41 in NE 4.0 mph 4.0 mph 89 % 0.00 in 179.00 W/m2
16:05 44.2 °F 40.9 °F 30.41 in Calm   3.0 mph 88 % 0.00 in 183.00 W/m2
16:10 44.2 °F 40.6 °F 30.41 in Calm     87 % 0.00 in 172.00 W/m2
16:15 44.3 °F 40.4 °F 30.41 in NE 1.0 mph 4.0 mph 86 % 0.00 in 162.00 W/m2
16:20 44.5 °F 40.6 °F 30.41 in Calm     86 % 0.00 in 155.00 W/m2
16:25 44.7 °F 40.8 °F 30.41 in Calm     86 % 0.00 in 146.00 W/m2
16:30 44.8 °F 40.9 °F 30.41 in Calm     86 % 0.00 in 128.00 W/m2
16:35 44.9 °F 41.0 °F 30.41 in Calm     86 % 0.00 in 125.00 W/m2
16:40 44.9 °F 41.0 °F 30.41 in Calm     86 % 0.00 in 134.00 W/m2
16:45 44.9 °F 41.3 °F 30.41 in Calm     87 % 0.00 in 125.00 W/m2
16:50 45.0 °F 41.1 °F 30.41 in Calm     86 % 0.00 in 113.00 W/m2
16:55 45.1 °F 41.2 °F 30.41 in Calm     86 % 0.00 in 97.00 W/m2
17:00 45.2 °F 41.0 °F 30.41 in Calm     85 % 0.00 in 83.00 W/m2
17:05 45.3 °F 41.1 °F 30.41 in Calm     85 % 0.00 in 70.00 W/m2
17:10 45.4 °F 41.2 °F 30.41 in Calm     85 % 0.00 in 69.00 W/m2
17:15 45.5 °F 41.6 °F 30.41 in Calm     86 % 0.00 in 62.00 W/m2
17:20 45.5 °F 41.6 °F 30.41 in Calm     86 % 0.00 in 65.00 W/m2
17:25 45.4 °F 41.5 °F 30.41 in Calm     86 % 0.00 in 67.00 W/m2
17:30 45.4 °F 41.5 °F 30.41 in Calm     86 % 0.00 in 47.00 W/m2
17:35 45.4 °F 42.1 °F 30.41 in Calm     88 % 0.00 in 30.00 W/m2
17:40 45.3 °F 42.0 °F 30.41 in Calm     88 % 0.00 in 21.00 W/m2
17:45 45.0 °F 41.7 °F 30.41 in Calm     88 % 0.00 in 18.00 W/m2
17:50 44.7 °F 41.4 °F 30.41 in Calm     88 % 0.00 in 12.00 W/m2
17:55 44.3 °F 41.0 °F 30.41 in Calm     88 % 0.00 in 11.00 W/m2
18:00 44.0 °F 40.7 °F 30.41 in Calm     88 % 0.00 in 7.00 W/m2
18:05 43.8 °F 40.8 °F 30.41 in Calm     89 % 0.00 in 5.00 W/m2
18:10 43.5 °F 40.5 °F 30.41 in Calm     89 % 0.00 in 0.00 W/m2
18:15 43.3 °F 40.6 °F 30.41 in Calm     90 % 0.00 in 0.00 W/m2
18:20 43.0 °F 40.3 °F 30.41 in Calm     90 % 0.00 in 0.00 W/m2
18:25 42.9 °F 40.2 °F 30.41 in Calm     90 % 0.00 in 0.00 W/m2
18:30 42.7 °F 40.0 °F 30.41 in Calm     90 % 0.00 in 0.00 W/m2
18:35 42.5 °F 39.8 °F 30.41 in Calm     90 % 0.00 in 0.00 W/m2
18:40 42.1 °F 39.4 °F 30.41 in Calm     90 % 0.00 in 0.00 W/m2
18:45 41.7 °F 39.0 °F 30.41 in Calm     90 % 0.00 in 0.00 W/m2
18:50 41.5 °F 38.8 °F 30.41 in Calm     90 % 0.00 in 0.00 W/m2
18:55 41.3 °F 38.9 °F 30.41 in Calm     91 % 0.00 in 0.00 W/m2
19:00 41.2 °F 38.5 °F 30.41 in Calm     90 % 0.00 in 0.00 W/m2
19:05 41.0 °F 38.6 °F 30.41 in Calm   4.0 mph 91 % 0.00 in 0.00 W/m2
19:10 40.9 °F 38.5 °F 30.41 in Calm   3.0 mph 91 % 0.00 in 0.00 W/m2
19:15 40.7 °F 38.3 °F 30.41 in Calm   5.0 mph 91 % 0.00 in 0.00 W/m2
19:20 40.6 °F 38.2 °F 30.41 in East 2.0 mph 6.0 mph 91 % 0.00 in 0.00 W/m2
19:25 40.5 °F 38.1 °F 30.41 in ESE 1.0 mph 6.0 mph 91 % 0.00 in 0.00 W/m2
19:30 40.4 °F 38.0 °F 30.40 in East 5.0 mph 7.0 mph 91 % 0.00 in 0.00 W/m2
19:35 40.4 °F 38.0 °F 30.41 in Calm   11.0 mph 91 % 0.00 in 0.00 W/m2
19:40 40.4 °F 38.0 °F 30.41 in East 1.0 mph 7.0 mph 91 % 0.00 in 0.00 W/m2
19:45 40.4 °F 38.0 °F 30.41 in ESE 4.0 mph 7.0 mph 91 % 0.00 in 0.00 W/m2
19:50 40.5 °F 38.1 °F 30.41 in East 4.0 mph 7.0 mph 91 % 0.00 in 0.00 W/m2
19:55 40.5 °F 38.4 °F 30.41 in Calm   4.0 mph 92 % 0.00 in 0.00 W/m2
20:00 40.5 °F 38.4 °F 30.41 in Calm   7.0 mph 92 % 0.00 in 0.00 W/m2
20:05 40.6 °F 38.5 °F 30.41 in Calm   7.0 mph 92 % 0.00 in 0.00 W/m2
20:10 40.6 °F 38.5 °F 30.41 in Calm   7.0 mph 92 % 0.00 in 0.00 W/m2
20:15 40.6 °F 38.5 °F 30.41 in Calm   6.0 mph 92 % 0.00 in 0.00 W/m2
20:17 40.7 °F 38.6 °F 30.41 in ESE 5.0 mph 8.0 mph 92 % 0.00 in 0.00 W/m2
20:22 40.7 °F 38.3 °F 30.41 in ESE 1.0 mph 9.0 mph 91 % 0.00 in 0.00 W/m2
20:27 40.7 °F 38.3 °F 30.42 in East 2.0 mph 6.0 mph 91 % 0.00 in 0.00 W/m2
20:32 40.7 °F 38.3 °F 30.42 in Calm   6.0 mph 91 % 0.00 in 0.00 W/m2
20:37 40.7 °F 38.3 °F 30.42 in East 6.0 mph 6.0 mph 91 % 0.00 in 0.00 W/m2
20:42 40.7 °F 38.3 °F 30.42 in Calm   4.0 mph 91 % 0.00 in 0.00 W/m2
20:47 40.6 °F 38.2 °F 30.42 in Calm   4.0 mph 91 % 0.00 in 0.00 W/m2
20:53 40.5 °F 38.1 °F 30.42 in East 6.0 mph 6.0 mph 91 % 0.00 in 0.00 W/m2
20:58 40.3 °F 37.9 °F 30.42 in Calm   7.0 mph 91 % 0.00 in 0.00 W/m2
21:03 40.2 °F 37.8 °F 30.42 in East 5.0 mph 13.0 mph 91 % 0.00 in 0.00 W/m2
21:08 40.1 °F 37.7 °F 30.42 in East 5.0 mph 7.0 mph 91 % 0.00 in 0.00 W/m2
21:13 40.1 °F 37.7 °F 30.42 in East 2.0 mph 9.0 mph 91 % 0.00 in 0.00 W/m2
21:18 40.0 °F 37.6 °F 30.42 in Calm   8.0 mph 91 % 0.00 in 0.00 W/m2
21:23 40.0 °F 37.6 °F 30.42 in ESE 4.0 mph 9.0 mph 91 % 0.00 in 0.00 W/m2
21:28 40.0 °F 37.6 °F 30.42 in ESE 1.0 mph 9.0 mph 91 % 0.00 in 0.00 W/m2
21:33 40.0 °F 37.6 °F 30.42 in ESE 4.0 mph 8.0 mph 91 % 0.00 in 0.00 W/m2
21:38 40.1 °F 37.7 °F 30.42 in ESE 5.0 mph 8.0 mph 91 % 0.00 in 0.00 W/m2
21:43 40.1 °F 37.7 °F 30.42 in East 16.0 mph 16.0 mph 91 % 0.00 in 0.00 W/m2
21:48 40.1 °F 37.7 °F 30.42 in East 2.0 mph 9.0 mph 91 % 0.00 in 0.00 W/m2
21:53 40.1 °F 37.4 °F 30.41 in East 4.0 mph 11.0 mph 90 % 0.00 in 0.00 W/m2
21:58 40.1 °F 37.4 °F 30.41 in ESE 7.0 mph 13.0 mph 90 % 0.00 in 0.00 W/m2
22:03 40.2 °F 37.5 °F 30.41 in Calm   12.0 mph 90 % 0.00 in 0.00 W/m2
22:08 40.2 °F 37.5 °F 30.42 in ESE 2.0 mph 8.0 mph 90 % 0.00 in 0.00 W/m2
22:13 40.2 °F 37.5 °F 30.42 in East 2.0 mph 7.0 mph 90 % 0.00 in 0.00 W/m2
22:18 40.2 °F 37.5 °F 30.42 in East 9.0 mph 19.0 mph 90 % 0.00 in 0.00 W/m2
22:23 40.2 °F 37.5 °F 30.42 in East 2.0 mph 11.0 mph 90 % 0.00 in 0.00 W/m2
22:28 40.2 °F 37.5 °F 30.41 in Calm   11.0 mph 90 % 0.00 in 0.00 W/m2
22:33 40.2 °F 37.5 °F 30.42 in East 4.0 mph 8.0 mph 90 % 0.00 in 0.00 W/m2
22:39 40.1 °F 37.4 °F 30.41 in East 1.0 mph 7.0 mph 90 % 0.00 in 0.00 W/m2
22:44 40.1 °F 37.1 °F 30.42 in ESE 2.0 mph 8.0 mph 89 % 0.00 in 0.00 W/m2
22:49 40.0 °F 37.0 °F 30.42 in East 4.0 mph 11.0 mph 89 % 0.00 in 0.00 W/m2
22:54 40.0 °F 37.0 °F 30.41 in Calm   7.0 mph 89 % 0.00 in 0.00 W/m2
22:59 40.0 °F 37.0 °F 30.41 in East 1.0 mph 7.0 mph 89 % 0.00 in 0.00 W/m2
23:04 40.0 °F 37.0 °F 30.41 in Calm   12.0 mph 89 % 0.00 in 0.00 W/m2
23:09 40.1 °F 37.1 °F 30.42 in East 2.0 mph 9.0 mph 89 % 0.00 in 0.00 W/m2
23:14 40.0 °F 37.0 °F 30.42 in Calm   7.0 mph 89 % 0.00 in 0.00 W/m2
23:19 40.1 °F 37.1 °F 30.42 in Calm   6.0 mph 89 % 0.00 in 0.00 W/m2
23:24 40.1 °F 37.1 °F 30.42 in Calm   8.0 mph 89 % 0.00 in 0.00 W/m2
23:29 40.1 °F 37.1 °F 30.42 in ESE 1.0 mph 6.0 mph 89 % 0.00 in 0.00 W/m2
23:34 40.0 °F 37.0 °F 30.42 in East 5.0 mph 8.0 mph 89 % 0.00 in 0.00 W/m2
23:39 40.0 °F 37.0 °F 30.42 in Calm   8.0 mph 89 % 0.00 in 0.00 W/m2
23:44 40.1 °F 37.1 °F 30.42 in Calm   7.0 mph 89 % 0.00 in 0.00 W/m2
23:49 40.1 °F 37.1 °F 30.42 in Calm   13.0 mph 89 % 0.00 in 0.00 W/m2
23:54 40.1 °F 37.1 °F 30.41 in Calm   8.0 mph 89 % 0.00 in 0.00 W/m2
23:59 40.2 °F 37.2 °F 30.42 in East 4.0 mph 14.0 mph 89 % 0.00 in 0.00 W/m2
Juneau County Weather
Compliments of Weather Underground - 4.5 mb
 WU-history PHP script courtesy of   Juneau County Weather.
powered by Cumulus v1.9.3 (1059)
Ambient Weather VWS v14.00
Top Contact Website Map Copyright © 2007 - 2018 Foresthillweather.com Never base important decisions on this or any weather information obtained from the Internet